This is the latest recevied weather packets stored in our database for station/object KS4XQ. If no packets are shown the sender has not sent any weather packets the latest 10 day(s).
| Time | Temp. | Humidity | Pressure | Rain* | Wind** | Luminosity | Snow |
|---|---|---|---|---|---|---|---|
| 1777606803 | 15.56° C | 54% | 1012.3 hPa | 0 mm | - | - | - |
| 1777604102 | 16.67° C | 55% | 1012.3 hPa | 0 mm | - | - | - |
| 1777603204 | 16.67° C | 51% | 1012.4 hPa | 0 mm | - | - | - |
| 1777599903 | 17.22° C | 51% | 1011.8 hPa | 0 mm | - | - | - |
| 1777594203 | 18.89° C | 51% | 1010.2 hPa | 0 mm | - | - | - |
| 1777592103 | 20° C | 54% | 1009.8 hPa | 0 mm | - | - | - |
| 1777588203 | 22.22° C | 68% | 1009.3 hPa | 0 mm | - | - | - |
| 1777587003 | 22.78° C | 65% | 1009.3 hPa | 0 mm | - | - | - |
| 1777586702 | 22.78° C | 65% | 1009.3 hPa | 0 mm | - | - | - |
| 1777580404 | 23.33° C | 63% | 1009 hPa | 0 mm | - | - | - |
| 1777578304 | 22.78° C | 64% | 1009.3 hPa | 0 mm | - | - | - |
| 1777577402 | 22.78° C | 62% | 1009.5 hPa | 0 mm | - | - | - |
| 1777577104 | 22.78° C | 63% | 1009.6 hPa | 0 mm | - | - | - |
| 1777574702 | 23.89° C | 63% | 1009.9 hPa | 0 mm | - | - | - |
| 1777574402 | 22.78° C | 60% | 1009.9 hPa | 0 mm | - | - | - |
| 1777572602 | 23.33° C | 67% | 1010.1 hPa | 0 mm | - | - | - |
| 1777571102 | 22.78° C | 66% | 1010.4 hPa | 0 mm | - | - | - |
| 1777570203 | 22.22° C | 69% | 1010.5 hPa | 0 mm | - | - | - |
| 1777566002 | 21.11° C | 70% | 1011.1 hPa | 0 mm | - | - | - |
| 1777564502 | 20.56° C | 79% | 1011.1 hPa | 0 mm | - | - | - |
| 1777563603 | 19.44° C | 82% | 1011.3 hPa | 0 mm | - | - | - |
| 1777560002 | 16.67° C | 87% | 1011.1 hPa | 0 mm | - | - | - |
| 1777556103 | 15.56° C | 96% | 1009.8 hPa | 0.25 mm | - | - | - |
| 1777554901 | 15.56° C | 96% | 1009.5 hPa | 0.25 mm | - | - | - |
| 1777553701 | 15.56° C | 97% | 1009.5 hPa | 0.25 mm | - | - | - |
* Rain latest hour (hover to see other rain measurements)
** Current wind speed in m/s (hover to see current wind gust speed)